Location: Caltech
(34.1382°N, 118.1253°W)
Time: 13:33:59
(UTC-07:00)

Iridium 68 - Visible Passes

Search period start: 20 July 2017 00:00
Search period end: 30 July 2017 00:00
Orbit: 776 x 779 km, 86.4° (Epoch: 19 July)

Date Brightness Start Highest point End Pass type
(mag) Time Alt. Az. Time Alt. Az. Time Alt. Az.
21 Jul 9.5 20:24:03 10° W 20:25:53 12° WNW 20:27:42 10° NW visible
22 Jul 9.1 05:15:30 10° NE 05:18:09 14° ENE 05:20:47 10° ESE visible
25 Jul 8.8 05:14:33 10° NNE 05:18:26 21° E 05:22:17 10° SE visible
26 Jul 9.5 04:43:48 10° ENE 04:44:36 10° ENE 04:45:23 10° E visible
28 Jul 8.1 05:14:03 10° NNE 05:18:39 31° E 05:23:13 10° SE visible
29 Jul 8.9 04:41:44 10° NE 04:44:54 16° ENE 04:48:03 10° ESE visible
